This is the latest recevied weather packets stored in our database for station/object SV9TNF-57. If no packets are shown the sender has not sent any weather packets the latest 10 day(s).
| Time | Temp. | Humidity | Pressure | Rain* | Wind** | Luminosity | Snow |
|---|---|---|---|---|---|---|---|
| 1788463761 | 25.56° C | 55% | 994 hPa | 0 mm | 0.45 m/s, 271° | - | - |
| 1788463461 | 25.56° C | 53% | 994.2 hPa | 0 mm | 0.89 m/s, 302° | - | - |
| 1788463161 | 25.56° C | 53% | 994 hPa | 0 mm | 0 m/s | - | - |
| 1788462861 | 25.56° C | 52% | 993.9 hPa | 0 mm | 0 m/s | - | - |
| 1788462561 | 25.56° C | 52% | 993.9 hPa | 0 mm | 0 m/s | - | - |
| 1788462261 | 26.11° C | 52% | 993.9 hPa | 0 mm | 0 m/s | - | - |
| 1788461960 | 26.11° C | 51% | 994 hPa | 0 mm | 0.45 m/s, 270° | - | - |
| 1788461660 | 26.11° C | 51% | 994 hPa | 0 mm | 0 m/s | - | - |
| 1788461360 | 26.67° C | 51% | 993.8 hPa | 0 mm | 0.45 m/s, 281° | - | - |
| 1788461060 | 26.11° C | 50% | 993.8 hPa | 0 mm | 0 m/s | - | - |
| 1788460760 | 26.67° C | 50% | 994 hPa | 0 mm | 0 m/s | - | - |
| 1788460460 | 26.67° C | 50% | 994 hPa | 0 mm | 0 m/s | - | - |
| 1788460160 | 26.67° C | 49% | 993.9 hPa | 0 mm | 0 m/s | - | - |
| 1788459860 | 26.67° C | 49% | 993.8 hPa | 0 mm | 0 m/s | - | - |
| 1788459560 | 26.67° C | 50% | 993.5 hPa | 0 mm | 0 m/s | - | - |
| 1788459260 | 26.11° C | 52% | 993.5 hPa | 0 mm | 2.68 m/s, 285° | - | - |
| 1788458960 | 26.11° C | 55% | 993.5 hPa | 0 mm | 0 m/s | - | - |
| 1788458659 | 26.67° C | 56% | 993.4 hPa | 0 mm | 0 m/s | - | - |
| 1788458359 | 26.67° C | 56% | 993.7 hPa | 0 mm | 0 m/s | - | - |
| 1788458059 | 26.67° C | 58% | 993.4 hPa | 0 mm | 0 m/s | - | - |
| 1788457760 | 26.67° C | 57% | 993.5 hPa | 0 mm | 0 m/s | - | - |
| 1788457459 | 26.67° C | 55% | 993.5 hPa | 0 mm | 0 m/s | - | - |
| 1788457159 | 26.67° C | 59% | 993.4 hPa | 0 mm | 0 m/s | - | - |
| 1788456859 | 26.67° C | 60% | 993.5 hPa | 0 mm | 0.45 m/s, 296° | - | - |
| 1788456559 | 26.67° C | 60% | 993.4 hPa | 0 mm | 0 m/s | - | - |
* Rain latest hour (hover to see other rain measurements)
** Current wind speed in m/s (hover to see current wind gust speed)